Overview Statistics Trail Chart Weather Telemetry Raw packets
 

This is the latest recevied weather packets stored in our database for station/object K4WCH. If no packets are shown the sender has not sent any weather packets the latest 10 day(s).

<< 27 28 29 30 31 32 33 >>
Time Temp. Humidity Pressure Rain* Wind** Luminosity Snow
1788476073 27.78° C 87% 1014.3 hPa 0 mm - 36 W/m² -
1788475769 27.78° C 87% 1014.4 hPa 0 mm - 41 W/m² -
1788475465 27.78° C 86% 1014.4 hPa 0 mm - 45 W/m² -
1788475161 27.78° C 86% 1014.2 hPa 0 mm - 54 W/m² -
1788474860 28.33° C 86% 1014.3 hPa 0 mm - 52 W/m² -
1788474559 28.33° C 86% 1014 hPa 0 mm - 55 W/m² -
1788474255 28.33° C 86% 1014.1 hPa 0 mm - 58 W/m² -
1788473949 28.33° C 86% 1014.2 hPa 0 mm - 72 W/m² -
1788473648 28.33° C 86% 1014.2 hPa 0 mm - 72 W/m² -
1788473346 28.89° C 84% 1014.1 hPa 0 mm - 99 W/m² -
1788473040 28.89° C 84% 1014.1 hPa 0 mm - 99 W/m² -
1788472738 28.89° C 84% 1014.1 hPa 0 mm - 118 W/m² -
1788472435 28.89° C 84% 1014.2 hPa 0 mm - 149 W/m² -
1788472133 28.89° C 83% 1014.1 hPa 0 mm - 170 W/m² -
1788471829 28.89° C 83% 1013.9 hPa 0 mm - 161 W/m² -
1788471528 28.89° C 83% 1013.7 hPa 0 mm - 186 W/m² -
1788471223 28.89° C 84% 1013.6 hPa 0 mm - 178 W/m² -
1788470920 28.89° C 84% 1014 hPa 0 mm - 179 W/m² -
1788470616 28.89° C 83% 1013.8 hPa 0 mm - 332 W/m² -
1788470315 28.89° C 83% 1013.7 hPa 0 mm - 332 W/m² -
1788470011 28.89° C 82% 1013.9 hPa 0 mm - 329 W/m² -
1788469707 28.89° C 83% 1013.7 hPa 0 mm - 382 W/m² -
1788469402 28.89° C 83% 1013.6 hPa 0 mm - 353 W/m² -
1788469102 28.33° C 85% 1013.7 hPa 0 mm - 239 W/m² -
1788468802 28.33° C 85% 1013.5 hPa 0 mm - 239 W/m² -

* Rain latest hour (hover to see other rain measurements)
** Current wind speed in m/s (hover to see current wind gust speed)